Regional Weather Roundup
Issued by NWS

Home | Current Version | Previous Version | Graphics & Text | Print | Product List | Glossary On
Versions: 1 2 3 4 5 6 7 8 9 10 11 12 13 14 15 16 17 18 19 20 21 22 23 24 25 26 27 28
000
ASUS45 KSLC 190110
RWRUT

UTAH REGIONAL WEATHER ROUNDUP
NATIONAL WEATHER SERVICE SALT LAKE CITY UT
700 PM MDT WED OCT 18 2017

UTZ001>011-023>025-190200-

NORTHERN UTAH

CITY           SKY/WX    TMP DP  RH WIND       PRES   REMARKS
BRIGHAM CITY   CLEAR     61  28  28 CALM      30.10F
HILL AFB       CLEAR     60  34  37 CALM      30.11F
LOGAN            N/A     64  23  21 CALM      30.09F
OGDEN          CLEAR     58  35  42 W5        30.10F
SALT LAKE CITY PTCLDY    59  32  36 W5        30.10S
TOOELE VALLEY  CLEAR     52  34  50 CALM      30.11F
WENDOVER       CLEAR     57  23  26 CALM      30.10F

$$

UTZ011>015-024>027-190200-

CENTRAL/NORTHEAST UTAH

CITY           SKY/WX    TMP DP  RH WIND       PRES   REMARKS
PROVO AIRPORT  PTCLDY    57  28  33 CALM      30.11S
MOAB/CANYONLAN CLOUDY    63  14  15 NW9       30.09F
DELTA          MOCLDY    55  21  26 S6        30.11S
PRICE          MOCLDY    60  12  15 E7        30.17F
RICHFIELD      CLEAR     63  25  23 CALM      30.14F
VERNAL         CLEAR     54  22  28 W5        30.14F

$$

UTZ013>016-019>022-027-190200-

SOUTHERN UTAH

CITY           SKY/WX    TMP DP  RH WIND       PRES   REMARKS
BRYCE CANYON   CLOUDY    59  23  25 CALM      30.27S
CEDAR CITY     CLOUDY    60  22  23 NE5       30.13F
MILFORD        MOCLDY    62  16  16 N8        30.11S
ST GEORGE      PTCLDY    73  25  16 CALM      30.01S
HANKSVILLE     CLOUDY    63  14  15 N6        30.12F
KANAB          PTCLDY    68  30  24 CALM      30.14S
BLANDING         N/A     59  18  20 W5        30.23F

$$

REGIONAL REPORTS     COLORADO/ARIZONA

CITY           SKY/WX    TMP DP  RH WIND       PRES   REMARKS
CRAIG, CO      CLEAR     49  17  28 CALM      30.19S
GRAND JUNCTION CLOUDY    57  17  21 CALM      30.12S
RIFLE, CO      CLOUDY    59  20  22 S6        30.16R
MONTROSE, CO   CLOUDY    55  24  30 SE5       30.18R
CORTEZ, CO     CLOUDY    54  28  36 SE3       30.17F
COLORADO CITY  MOCLDY    72  19  14 CALM      30.13S
PAGE, AZ       CLOUDY    69  26  20 CALM      30.07S
GRAND CANYON   CLOUDY    66  26  22 W5        30.22S
KINGMAN, AZ    MOCLDY    75  33  21 SW7       30.02S
FLAGSTAFF, AZ  CLOUDY    63  28  26 SW3       30.24F

$$

REGIONAL REPORTS    NEVADA/IDAHO/WYOMING

CITY           SKY/WX    TMP DP  RH WIND       PRES   REMARKS
LAS VEGAS, NV  CLOUDY    81  14   8 CALM      29.95F
ELY, NY        MOCLDY    59   8  13 S9        30.14S
ELKO, NV       CLEAR     64  13  13 CALM      30.08S
POCATELLO, ID  CLEAR     61  29  29 S5        30.08S
BURLEY, ID     PTCLDY    62  28  27 E5        30.03S
FORT BRIDGER,    N/A     57   6  12 S5        30.24S
EVANSTON, WY   CLEAR     54   9  16 NW10      30.21F
ROCK SPRINGS,  CLEAR     55   6  14 SW6       30.20S
KEMMERER, WY   CLEAR     50  12  22 W6        30.23S

$$




USA.gov is the U.S. government's official web portal to all federal, state and local government web resources and services.